TimeEST,TemperatureF,Dew PointF,Humidity,Sea Level PressureIn,VisibilityMPH,Wind Direction,Wind SpeedMPH,Gust SpeedMPH,PrecipitationIn,Events,Conditions,WindDirDegrees,DateUTC
12:07 AM,33.1,30.9,92,29.13,9.0,NW,12.7,-,0.01,Rain,Light Rain,310,2013-11-28 05:07:00
12:17 AM,33.1,30.9,92,29.13,10.0,WNW,15.0,20.7,0.02,Rain,Light Rain,300,2013-11-28 05:17:00
12:41 AM,32.0,30.0,92,29.12,10.0,NW,11.5,-,0.02,Rain,Light Rain,310,2013-11-28 05:41:00
12:53 AM,32.0,30.0,92,29.15,10.0,WNW,15.0,-,0.02,,Overcast,300,2013-11-28 05:53:00
1:25 AM,32.0,30.0,92,29.15,7.0,West,10.4,-,0.00,,Overcast,280,2013-11-28 06:25:00
1:53 AM,32.0,30.0,92,29.17,10.0,West,8.1,-,0.00,,Overcast,270,2013-11-28 06:53:00
2:45 AM,30.9,30.0,96,29.17,1.8,WNW,11.5,-,0.00,Snow,Light Snow,290,2013-11-28 07:45:00
2:48 AM,32.0,30.2,93,29.18,1.5,NW,10.4,-,0.00,Snow,Light Snow,310,2013-11-28 07:48:00
2:53 AM,30.9,28.9,92,29.20,1.5,NW,10.4,-,0.00,Snow,Light Snow,310,2013-11-28 07:53:00
2:56 AM,30.9,28.9,92,29.19,2.0,NW,10.4,-,0.00,Snow,Light Snow,310,2013-11-28 07:56:00
3:00 AM,30.9,28.0,89,29.19,5.0,NW,8.1,-,0.00,Snow,Light Snow,310,2013-11-28 08:00:00
3:21 AM,30.9,28.0,89,29.19,2.0,WNW,11.5,-,0.01,Snow,Light Snow,300,2013-11-28 08:21:00
3:27 AM,30.9,28.0,89,29.19,1.8,WNW,9.2,-,0.01,Snow,Light Snow,300,2013-11-28 08:27:00
3:30 AM,30.9,28.0,89,29.19,1.5,WNW,9.2,-,0.01,Snow,Light Snow,300,2013-11-28 08:30:00
3:38 AM,30.9,28.0,89,29.20,1.5,West,11.5,19.6,0.01,Snow,Light Snow,280,2013-11-28 08:38:00
3:45 AM,30.9,27.0,85,29.20,2.0,West,16.1,-,0.01,Snow,Light Snow,280,2013-11-28 08:45:00
3:53 AM,30.0,26.1,85,29.21,4.0,WNW,16.1,-,0.01,Snow,Light Snow,300,2013-11-28 08:53:00
4:10 AM,30.0,27.0,88,29.21,6.0,WNW,11.5,-,0.00,Snow,Light Snow,290,2013-11-28 09:10:00
4:30 AM,30.0,27.0,88,29.23,6.0,West,10.4,-,0.00,Snow,Light Snow,270,2013-11-28 09:30:00
4:40 AM,30.0,27.0,88,29.23,3.0,West,12.7,-,0.00,Snow,Light Snow,280,2013-11-28 09:40:00
4:42 AM,30.0,27.0,88,29.24,2.5,West,13.8,-,0.01,Snow,Light Snow,270,2013-11-28 09:42:00
4:48 AM,30.2,26.6,86,29.23,1.8,West,16.1,20.7,0.01,Snow,Light Snow,280,2013-11-28 09:48:00
4:53 AM,30.0,27.0,88,29.25,1.5,WNW,13.8,-,0.01,Snow,Light Snow,290,2013-11-28 09:53:00
5:00 AM,30.0,27.0,88,29.24,1.8,West,15.0,-,0.00,Snow,Light Snow,280,2013-11-28 10:00:00
5:10 AM,28.9,27.0,92,29.25,2.0,West,11.5,-,0.00,Snow,Light Snow,270,2013-11-28 10:10:00
5:16 AM,28.9,27.0,92,29.25,1.5,West,11.5,-,0.01,Snow,Light Snow,270,2013-11-28 10:16:00
5:25 AM,28.9,27.0,92,29.26,1.2,West,12.7,-,0.01,Snow,Light Snow,260,2013-11-28 10:25:00
5:30 AM,28.9,27.0,92,29.26,1.0,West,13.8,-,0.01,Snow,Light Snow,270,2013-11-28 10:30:00
5:37 AM,28.9,27.0,92,29.27,1.0,West,11.5,-,0.01,Snow,Light Snow,270,2013-11-28 10:37:00
5:49 AM,28.4,26.6,93,29.28,1.0,WNW,11.5,-,0.02,Snow,Light Snow,300,2013-11-28 10:49:00
5:53 AM,28.9,26.1,89,29.30,1.0,WNW,15.0,23.0,0.02,Snow,Light Snow,300,2013-11-28 10:53:00
6:02 AM,28.0,24.1,85,29.29,1.5,WNW,17.3,24.2,0.00,Snow,Light Snow,290,2013-11-28 11:02:00
6:15 AM,28.0,24.1,85,29.30,1.8,WNW,18.4,27.6,0.00,Snow,Light Snow,290,2013-11-28 11:15:00
6:26 AM,28.0,24.1,85,29.31,2.0,WNW,18.4,-,0.00,Snow,Light Snow,290,2013-11-28 11:26:00
6:30 AM,28.0,23.0,81,29.31,3.0,WNW,15.0,-,0.00,Snow,Light Snow,290,2013-11-28 11:30:00
6:53 AM,27.0,21.9,81,29.34,9.0,WNW,19.6,29.9,0.00,Snow,Light Snow,290,2013-11-28 11:53:00
7:53 AM,26.1,21.9,84,29.38,4.0,West,19.6,26.5,0.00,Snow,Light Snow,280,2013-11-28 12:53:00
8:04 AM,26.1,23.0,88,29.37,3.0,West,17.3,-,0.00,Snow,Light Snow,270,2013-11-28 13:04:00
8:31 AM,26.1,19.0,75,29.40,10.0,West,24.2,31.1,0.00,,Overcast,280,2013-11-28 13:31:00
8:53 AM,25.0,19.0,78,29.45,10.0,West,13.8,26.5,0.00,,Overcast,280,2013-11-28 13:53:00
9:53 AM,24.1,16.0,71,29.50,10.0,West,17.3,24.2,0.00,,Overcast,270,2013-11-28 14:53:00
10:53 AM,23.0,15.1,72,29.55,8.0,West,26.5,35.7,0.00,,Overcast,270,2013-11-28 15:53:00
11:53 AM,19.9,12.9,74,29.61,9.0,West,23.0,33.4,0.00,Snow,Light Snow,260,2013-11-28 16:53:00
12:53 PM,19.0,10.9,71,29.66,9.0,West,15.0,28.8,0.00,,Overcast,260,2013-11-28 17:53:00
1:53 PM,18.0,9.0,68,29.71,7.0,West,25.3,34.5,0.00,Snow,Light Snow,260,2013-11-28 18:53:00
2:30 PM,17.1,9.0,71,29.73,8.0,West,19.6,33.4,0.00,Snow,Light Snow,260,2013-11-28 19:30:00
2:53 PM,17.1,9.0,71,29.79,10.0,WSW,21.9,29.9,0.00,,Overcast,250,2013-11-28 19:53:00
3:23 PM,16.0,8.1,71,29.77,10.0,West,18.4,25.3,0.00,,Overcast,270,2013-11-28 20:23:00
3:53 PM,16.0,7.0,68,29.84,10.0,West,20.7,32.2,0.00,,Overcast,260,2013-11-28 20:53:00
4:53 PM,16.0,7.0,68,29.90,10.0,West,17.3,-,N/A,,Overcast,270,2013-11-28 21:53:00
5:53 PM,15.1,7.0,70,29.95,10.0,West,18.4,27.6,N/A,,Overcast,270,2013-11-28 22:53:00
6:53 PM,15.1,8.1,74,29.99,10.0,West,16.1,26.5,N/A,,Overcast,280,2013-11-28 23:53:00
7:53 PM,14.0,7.0,74,30.05,10.0,West,6.9,-,N/A,,Overcast,260,2013-11-29 00:53:00
8:50 PM,14.0,6.8,73,30.03,10.0,WSW,9.2,-,N/A,,Mostly Cloudy,250,2013-11-29 01:50:00
8:53 PM,12.9,7.0,77,30.08,10.0,WSW,8.1,-,N/A,,Scattered Clouds,240,2013-11-29 01:53:00
9:53 PM,12.0,7.0,80,30.12,10.0,WSW,5.8,-,N/A,,Clear,250,2013-11-29 02:53:00
10:53 PM,12.0,6.1,77,30.15,10.0,West,6.9,-,N/A,,Clear,270,2013-11-29 03:53:00
11:53 PM,10.9,5.0,77,30.18,10.0,West,9.2,-,N/A,,Clear,280,2013-11-29 04:53:00